Home   Weather   37°40'S, 144°56'E   Past weeks
Flag for Australia

Past Weather in 37°40'S, 144°56'E, Australia — Yesterday and Last 2 Weeks

Now
64 °F

Sunny.


Feels Like: 64 °F
Forecast: 57 / 47 °F
Wind: 22 mph from Northwest

Location: Melbourne Airport

Current Time: Oct 18, 2019 at 2:52:34 pm

Latest Report: Oct 18, 2019 at 2:00 pm


Visibility: 10 mi

Pressure: 29.89 "Hg

Humidity: 40%

Dew Point: 39 °F

Location of 37°40'S, 144°56'ELocation

Past Weather in 37°40'S, 144°56'E — Graph

°F

37°40'S, 144°56'E Temperature Yesterday

Maximum temperature yesterday: 59 °F (at 12:00 pm)
Minimum temperature yesterday: 46 °F (at 6:00 am)
Average temperature yesterday: 52 °F

High & Low Weather Summary for the Past Weeks

 TemperatureHumidityPressure
High84 °F (Oct 3, 1:11 pm)100% (Oct 5, 3:00 am)30.33 "Hg (Oct 5, 3:00 am)
Low41 °F (Oct 18, 6:00 am)19% (Oct 3, 1:00 pm)29.59 "Hg (Oct 6, 8:12 am)
Average56 °F71%30.02 "Hg
* Reported Oct 3 12:00 pm — Oct 18 1:00 pm, 37°40'S, 144°56'E. Weather by CustomWeather, © 2019

Note: Actual official high and low records may vary slightly from our data, if they occured in-between our weather recording intervals... More about our weather records

Advertising

37°40'S, 144°56'E Weather History for the Previous 24 Hours

Scroll right to see more
 ConditionsComfort  
Time TempWeatherWind HumidityBarometerVisibility
1:00 pm
Fri, Oct 18
63 °FSunny.24 mph39%29.92 "Hg10 mi
12:35 pm63 °FPartly sunny.22 mph42%29.92 "HgN/A
12:00 pm63 °FPartly sunny.23 mph42%29.95 "HgN/A
11:00 am59 °FScattered clouds.18 mph48%29.98 "HgN/A
10:30 am57 °FPartly sunny.18 mph51%29.98 "HgN/A
10:00 am55 °FPartly sunny.18 mph55%29.98 "HgN/A
9:30 am54 °FPartly sunny.14 mph58%29.98 "HgN/A
9:00 am52 °FPassing clouds.13 mph62%29.98 "HgN/A
8:30 am50 °FPassing clouds.14 mph67%30.01 "HgN/A
8:00 am46 °FPassing clouds.12 mph71%30.01 "HgN/A
7:30 am43 °FPassing clouds.12 mph76%30.01 "HgN/A
7:00 am41 °FPassing clouds.12 mph81%29.98 "HgN/A
6:30 am41 °FPassing clouds.10 mph81%29.98 "HgN/A
6:00 am41 °FPassing clouds.12 mph81%29.98 "HgN/A
5:30 am43 °FPassing clouds.12 mph76%29.98 "HgN/A
5:00 am43 °FPassing clouds.12 mph76%29.98 "HgN/A
4:30 am43 °FPassing clouds.9 mph81%29.98 "HgN/A
4:00 am43 °FPassing clouds.12 mph81%30.01 "HgN/A
3:30 am43 °FPassing clouds.12 mph87%30.01 "HgN/A
3:00 am45 °FPassing clouds.9 mph81%30.01 "HgN/A
1:30 am46 °FPassing clouds.7 mph87%30.01 "HgN/A
1:00 am46 °FPassing clouds.8 mph82%30.04 "HgN/A
12:30 am48 °FPassing clouds.7 mph87%30.04 "HgN/A
12:00 am48 °FPassing clouds.6 mph87%30.04 "HgN/A
11:30 pm
Thu, Oct 17
48 °FPassing clouds.8 mph82%30.04 "HgN/A
11:00 pm50 °FPassing clouds.8 mph82%30.04 "HgN/A
10:30 pm50 °FPassing clouds.14 mph76%30.04 "HgN/A
10:00 pm52 °FScattered showers. Passing clouds.17 mph77%30.04 "HgN/A
9:30 pm52 °FScattered showers. Passing clouds.18 mph77%30.01 "HgN/A
9:00 pm52 °FPassing clouds.16 mph72%30.01 "HgN/A
8:30 pm52 °FPassing clouds.9 mph72%29.98 "HgN/A
8:00 pm52 °FPassing clouds.12 mph67%29.95 "HgN/A
7:30 pm54 °FPartly sunny.21 mph63%29.95 "HgN/A
7:10 pm55 °FPartly sunny.18 mph59%29.92 "HgN/A
6:42 pm55 °FBroken clouds.21 mph59%29.92 "HgN/A
6:30 pm55 °FBroken clouds.20 mph63%29.92 "HgN/A
6:00 pm55 °FSprinkles. Scattered clouds.22 mph67%29.89 "HgN/A
5:30 pm52 °FSprinkles. Broken clouds.26 mph82%29.89 "HgN/A
5:00 pm57 °FPartly sunny.22 mph55%29.86 "HgN/A
4:30 pm57 °FScattered clouds.25 mph51%29.86 "HgN/A
4:00 pm57 °FScattered clouds.28 mph55%29.83 "HgN/A
3:42 pm57 °FScattered clouds.28 mph55%29.83 "HgN/A
3:30 pm57 °FScattered clouds.29 mph51%29.83 "HgN/A
3:00 pm55 °FSprinkles. Partly sunny.25 mph55%29.83 "HgN/A
2:30 pm55 °FPartly sunny.26 mph55%29.83 "HgN/A
2:00 pm54 °FPartly sunny.25 mph54%29.83 "HgN/A
Weather by CustomWeather, © 2019

See weather overview